Weather History for KSIY - October, 2012

Change the Weather History Date:

Tuesday, October 16, 2012

  Actual Average Record
Temperature  
Mean Temperature 52 °F 52 °F  
Max Temperature 67 °F 68 °F 86 °F (1955)
Min Temperature 36 °F 36 °F 24 °F (2013)
Degree Days  
Heating Degree Days 13 13  
Month to date heating degree days 97 167  
Since 1 July heating degree days 112 309  
Cooling Degree Days 0 0  
Month to date cooling degree days 3 0  
Year to date cooling degree days 622 542  
Growing Degree Days 6 (Base 50)    
Moisture  
Dew Point 46 °F    
Average Humidity 64    
Maximum Humidity 90    
Minimum Humidity 39    
Precipitation  
Precipitation 0.06 in 0.04 in 0.32 in (1969)
Month to date precipitation 0.06 0.38  
Year to date precipitation 7.69 12.02  
Sea Level Pressure  
Sea Level Pressure 30.08 in    
Wind  
Wind Speed 11 mph (North)    
Max Wind Speed 26 mph    
Max Gust Speed 35 mph    
Visibility 10 miles    
Events Rain    
T = Trace of Precipitation, MM = Missing Value Source: NWS Daily Summary

Daily Weather History Graph

Daily Weather History Graph

Search for Another Location

Airport or City:

Trip Planner

Search our weather history database for the weather conditions in past years. The results will help you decide how hot, cold, wet, or windy it might be!

Date:

Astronomy

Oct. 16, 2012 Rise Set
Actual Time 7:23 AM PDT 6:25 PM PDT
Civil Twilight 6:55 AM PDT 6:54 PM PDT
Nautical Twilight 6:23 AM PDT 7:26 PM PDT
Astronomical Twilight 5:51 AM PDT 7:58 PM PDT
Moon 8:55 AM PDT (10/16) 7:12 PM PDT (10/16)
Length of Visible Light 11h 58m
Length of Day
11h 02m
New Moon, 2% of the Moon is Illuminated
Oct 16
New Moon
Oct 21
First Quarter
Oct 29
Full
Nov 6
Last Quarter
Nov 13
New

Hourly Weather History & Observations

Time (PDT) Temp. Windchill Dew Point Humidity Pressure Visibility Wind Dir Wind Speed Gust Speed Precip Events Conditions
12:53 AM 64.0 °F - 55.9 °F 75% 29.94 in 10.0 mi NE 8.1 mph - 0.00 in   Overcast
1:53 AM 62.1 °F - 57.9 °F 86% 29.96 in 10.0 mi NE 6.9 mph - 0.01 in Rain Light Rain
2:53 AM 63.0 °F - 57.9 °F 84% 29.93 in 10.0 mi Calm Calm - 0.00 in   Overcast
3:53 AM 62.1 °F - 57.9 °F 86% 29.94 in 10.0 mi NNE 3.5 mph - 0.00 in Rain Light Rain
5:53 AM 62.1 °F - 57.9 °F 86% 29.95 in 10.0 mi Calm Calm - N/A   Overcast
6:53 AM 60.1 °F - 57.0 °F 90% 29.97 in 10.0 mi ESE 3.5 mph - N/A   Overcast
7:53 AM 62.1 °F - 55.0 °F 78% 29.99 in 10.0 mi West 6.9 mph - N/A   Mostly Cloudy
8:53 AM 63.0 °F - 53.1 °F 70% 30.02 in 10.0 mi WNW 17.3 mph 23.0 mph N/A   Mostly Cloudy
9:53 AM 66.0 °F - 51.1 °F 59% 30.04 in 10.0 mi NW 15.0 mph - N/A   Partly Cloudy
10:53 AM 64.9 °F - 51.1 °F 61% 30.07 in 10.0 mi North 15.0 mph 27.6 mph N/A   Clear
11:00 AM 64.4 °F - 51.8 °F 64% 30.09 in 10.0 mi North 16.1 mph 24.2 mph N/A   Clear
11:53 AM 66.9 °F - 48.0 °F 51% 30.07 in 10.0 mi North 19.6 mph 23.0 mph N/A   Clear
12:53 PM 66.0 °F - 44.1 °F 45% 30.09 in 10.0 mi North 23.0 mph 28.8 mph N/A   Clear
1:53 PM 64.9 °F - 42.1 °F 43% 30.10 in 10.0 mi North 24.2 mph 33.4 mph N/A   Clear
2:53 PM 63.0 °F - 39.9 °F 43% 30.12 in 10.0 mi NNE 24.2 mph - N/A   Clear
3:53 PM 62.1 °F - 37.9 °F 41% 30.13 in 10.0 mi North 21.9 mph - N/A   Clear
4:53 PM 62.1 °F - 37.0 °F 39% 30.14 in 10.0 mi North 12.7 mph - N/A   Clear
5:53 PM 57.9 °F - 36.0 °F 44% 30.15 in 10.0 mi North 16.1 mph - N/A   Clear
6:53 PM 52.0 °F - 37.0 °F 57% 30.17 in 10.0 mi North 16.1 mph - N/A   Clear
7:53 PM 48.9 °F - 37.0 °F 64% 30.19 in 10.0 mi NNE 13.8 mph - N/A   Clear
8:53 PM 48.9 °F - 37.0 °F 64% 30.20 in 10.0 mi North 16.1 mph - N/A   Clear
9:53 PM 45.0 °F 42.6 °F 35.1 °F 68% 30.22 in 10.0 mi ESE 4.6 mph - N/A   Clear
10:53 PM 46.9 °F - 37.0 °F 68% 30.24 in 10.0 mi NNW 9.2 mph - N/A   Clear
11:53 PM 43.0 °F 41.3 °F 36.0 °F 76% 30.25 in 10.0 mi NNE 3.5 mph - N/A   Clear